Time,TemperatureF,DewpointF,PressureIn,WindDirection,WindDirectionDegrees,WindSpeedMPH,WindSpeedGustMPH,Humidity,HourlyPrecipIn,Conditions,Clouds,dailyrainin,SoftwareType,DateUTC
2013-01-21 00:01:00,38.3,16.1,30.08,NE,45,0.0,0.0,40,0.00,,,0.00,VWS V14.00,2013-01-21 05:01:00,
2013-01-21 00:02:00,38.1,15.9,30.08,NE,45,0.0,0.0,40,0.00,,,0.00,VWS V14.00,2013-01-21 05:02:00,
2013-01-21 00:03:00,38.1,15.9,30.08,NE,45,0.0,0.0,40,0.00,,,0.00,VWS V14.00,2013-01-21 05:03:00,
2013-01-21 00:08:00,38.1,16.5,30.08,NE,45,0.0,0.0,41,0.00,,,0.00,VWS V14.00,2013-01-21 05:08:00,
2013-01-21 00:13:00,38.3,16.1,30.08,NE,45,0.0,0.0,40,0.00,,,0.00,VWS V14.00,2013-01-21 05:13:00,
2013-01-21 00:18:00,38.5,16.3,30.08,NE,45,0.0,0.0,40,0.00,,,0.00,VWS V14.00,2013-01-21 05:18:00,
2013-01-21 00:23:00,38.5,16.3,30.08,NE,46,0.0,0.0,40,0.00,,,0.00,VWS V14.00,2013-01-21 05:23:00,
2013-01-21 00:28:00,38.5,16.3,30.08,NE,46,0.0,0.0,40,0.00,,,0.00,VWS V14.00,2013-01-21 05:28:00,
2013-01-21 00:33:00,38.1,15.9,30.08,NE,46,0.0,0.0,40,0.00,,,0.00,VWS V14.00,2013-01-21 05:33:00,
2013-01-21 00:39:00,38.1,15.9,30.08,NE,46,0.0,0.0,40,0.00,,,0.00,VWS V14.00,2013-01-21 05:39:00,
2013-01-21 00:44:00,38.1,15.9,30.08,NE,46,0.0,0.0,40,0.00,,,0.00,VWS V14.00,2013-01-21 05:44:00,
2013-01-21 00:49:00,38.3,16.1,30.08,NE,46,0.0,0.0,40,0.00,,,0.00,VWS V14.00,2013-01-21 05:49:00,
2013-01-21 00:54:00,37.9,15.8,30.08,NE,46,0.0,0.0,40,0.00,,,0.00,VWS V14.00,2013-01-21 05:54:00,
2013-01-21 00:59:00,37.4,16.4,30.08,NE,46,0.0,0.0,42,0.00,,,0.00,VWS V14.00,2013-01-21 05:59:00,
2013-01-21 01:04:00,37.0,17.2,30.08,NE,46,0.0,0.0,44,0.00,,,0.00,VWS V14.00,2013-01-21 06:04:00,
2013-01-21 01:09:00,36.9,17.0,30.08,NE,46,0.0,0.0,44,0.00,,,0.00,VWS V14.00,2013-01-21 06:09:00,
2013-01-21 01:14:00,36.9,17.0,30.08,NE,46,0.0,0.0,44,0.00,,,0.00,VWS V14.00,2013-01-21 06:14:00,
2013-01-21 01:19:00,37.0,16.6,30.08,NE,46,0.0,0.0,43,0.00,,,0.00,VWS V14.00,2013-01-21 06:19:00,
2013-01-21 01:24:00,37.2,16.8,30.08,NE,46,0.0,0.0,43,0.00,,,0.00,VWS V14.00,2013-01-21 06:24:00,
2013-01-21 01:29:00,37.4,16.4,30.08,NE,46,0.0,0.0,42,0.00,,,0.00,VWS V14.00,2013-01-21 06:29:00,
2013-01-21 01:34:00,37.4,16.4,30.08,NE,46,0.0,0.0,42,0.00,,,0.00,VWS V14.00,2013-01-21 06:34:00,
2013-01-21 01:39:00,37.4,16.4,30.08,NE,46,0.0,0.0,42,0.00,,,0.00,VWS V14.00,2013-01-21 06:39:00,
2013-01-21 01:44:00,37.8,16.2,30.08,NE,46,0.0,0.0,41,0.00,,,0.00,VWS V14.00,2013-01-21 06:44:00,
2013-01-21 01:49:00,37.9,15.8,30.08,NE,46,0.0,0.0,40,0.00,,,0.00,VWS V14.00,2013-01-21 06:49:00,
2013-01-21 01:54:00,37.8,15.6,30.08,NE,46,0.0,0.0,40,0.00,,,0.00,VWS V14.00,2013-01-21 06:54:00,
2013-01-21 01:59:00,37.4,15.3,30.08,NE,46,0.0,0.0,40,0.00,,,0.00,VWS V14.00,2013-01-21 06:59:00,
2013-01-21 02:04:00,37.2,15.7,30.08,NE,46,0.0,0.0,41,0.00,,,0.00,VWS V14.00,2013-01-21 07:04:00,
2013-01-21 02:09:00,37.4,15.3,30.08,NE,46,0.0,0.0,40,0.00,,,0.00,VWS V14.00,2013-01-21 07:09:00,
2013-01-21 02:14:00,37.4,15.3,30.08,NE,46,0.0,0.0,40,0.00,,,0.00,VWS V14.00,2013-01-21 07:14:00,
2013-01-21 02:19:00,37.4,14.7,30.08,NE,46,0.0,0.0,39,0.00,,,0.00,VWS V14.00,2013-01-21 07:19:00,
2013-01-21 02:24:00,37.4,14.7,30.08,NE,46,0.0,0.0,39,0.00,,,0.00,VWS V14.00,2013-01-21 07:24:00,
2013-01-21 02:29:00,37.4,14.7,30.08,NE,46,0.0,0.0,39,0.00,,,0.00,VWS V14.00,2013-01-21 07:29:00,
2013-01-21 02:34:00,37.2,14.6,30.08,NE,46,0.0,0.0,39,0.00,,,0.00,VWS V14.00,2013-01-21 07:34:00,
2013-01-21 02:39:00,37.2,14.6,30.08,NE,46,0.0,0.0,39,0.00,,,0.00,VWS V14.00,2013-01-21 07:39:00,
2013-01-21 02:44:00,37.0,13.8,30.08,NE,46,0.0,0.0,38,0.00,,,0.00,VWS V14.00,2013-01-21 07:44:00,
2013-01-21 02:49:00,37.0,13.8,30.08,NE,46,0.0,0.0,38,0.00,,,0.00,VWS V14.00,2013-01-21 07:49:00,
2013-01-21 02:54:00,36.9,14.2,30.08,NE,46,0.0,0.0,39,0.00,,,0.00,VWS V14.00,2013-01-21 07:54:00,
2013-01-21 02:59:00,36.7,13.5,30.08,NE,46,0.0,0.0,38,0.00,,,0.00,VWS V14.00,2013-01-21 07:59:00,
2013-01-21 03:04:00,36.5,13.9,30.08,NE,46,0.0,0.0,39,0.00,,,0.00,VWS V14.00,2013-01-21 08:04:00,
2013-01-21 03:09:00,36.1,14.2,30.08,NE,46,0.0,0.0,40,0.00,,,0.00,VWS V14.00,2013-01-21 08:09:00,
2013-01-21 03:14:00,36.1,14.2,30.08,NE,46,0.0,0.0,40,0.00,,,0.00,VWS V14.00,2013-01-21 08:14:00,
2013-01-21 03:19:00,36.1,14.2,30.08,NE,46,0.0,0.0,40,0.00,,,0.00,VWS V14.00,2013-01-21 08:19:00,
2013-01-21 03:24:00,35.8,13.8,30.08,NE,46,0.0,0.0,40,0.00,,,0.00,VWS V14.00,2013-01-21 08:24:00,
2013-01-21 03:29:00,35.6,13.7,30.08,NE,46,0.0,0.0,40,0.00,,,0.00,VWS V14.00,2013-01-21 08:29:00,
2013-01-21 03:34:00,35.6,13.1,30.08,NE,46,0.0,0.0,39,0.00,,,0.00,VWS V14.00,2013-01-21 08:34:00,
2013-01-21 03:39:00,35.6,13.1,30.08,NE,46,0.0,0.0,39,0.00,,,0.00,VWS V14.00,2013-01-21 08:39:00,
2013-01-21 03:44:00,35.4,13.5,30.08,NE,46,0.0,0.0,40,0.00,,,0.00,VWS V14.00,2013-01-21 08:44:00,
2013-01-21 03:49:00,35.4,13.5,30.05,NE,46,0.0,0.0,40,0.00,,,0.00,VWS V14.00,2013-01-21 08:49:00,
2013-01-21 03:54:00,34.9,13.6,30.05,NE,46,0.0,0.0,41,0.00,,,0.00,VWS V14.00,2013-01-21 08:54:00,
2013-01-21 03:59:00,34.5,13.8,30.05,NE,46,0.0,0.0,42,0.00,,,0.24,VWS V14.00,2013-01-21 08:59:00,
2013-01-21 04:04:00,34.2,14.5,30.08,NE,46,0.0,0.0,44,0.00,,,0.00,VWS V14.00,2013-01-21 09:04:00,
2013-01-21 04:10:00,33.8,14.2,30.08,NE,46,0.0,0.0,44,0.00,,,0.00,VWS V14.00,2013-01-21 09:10:00,
2013-01-21 04:15:00,33.6,14.6,30.08,NE,46,0.0,0.0,45,0.00,,,0.00,VWS V14.00,2013-01-21 09:15:00,
2013-01-21 04:20:00,33.6,14.6,30.08,NE,46,0.0,0.0,45,0.00,,,0.00,VWS V14.00,2013-01-21 09:20:00,
2013-01-21 04:25:00,33.8,14.2,30.08,NE,46,0.0,0.0,44,0.00,,,0.00,VWS V14.00,2013-01-21 09:25:00,
2013-01-21 04:30:00,34.2,14.0,30.08,NE,46,0.0,0.0,43,0.00,,,0.00,VWS V14.00,2013-01-21 09:30:00,
2013-01-21 04:35:00,34.2,14.0,30.08,NE,46,0.0,0.0,43,0.00,,,0.00,VWS V14.00,2013-01-21 09:35:00,
2013-01-21 04:40:00,34.0,13.9,30.08,NE,46,0.0,0.0,43,0.00,,,0.00,VWS V14.00,2013-01-21 09:40:00,
2013-01-21 04:45:00,34.0,14.4,30.08,NE,46,0.0,0.0,44,0.00,,,0.00,VWS V14.00,2013-01-21 09:45:00,
2013-01-21 04:50:00,33.8,14.2,30.08,NE,46,0.0,0.0,44,0.00,,,0.00,VWS V14.00,2013-01-21 09:50:00,
2013-01-21 04:55:00,33.8,14.7,30.08,NE,46,0.0,0.0,45,0.00,,,0.00,VWS V14.00,2013-01-21 09:55:00,
2013-01-21 05:00:00,33.4,15.4,30.08,NE,46,0.0,0.0,47,0.00,,,0.00,VWS V14.00,2013-01-21 10:00:00,
2013-01-21 05:05:00,33.3,15.2,30.08,NE,46,0.0,0.0,47,0.00,,,0.00,VWS V14.00,2013-01-21 10:05:00,
2013-01-21 05:10:00,33.4,15.4,30.08,NE,46,0.0,0.0,47,0.00,,,0.00,VWS V14.00,2013-01-21 10:10:00,
2013-01-21 05:15:00,33.6,15.1,30.08,NE,46,0.0,0.0,46,0.00,,,0.00,VWS V14.00,2013-01-21 10:15:00,
2013-01-21 05:20:00,33.8,14.2,30.08,NE,46,0.0,0.0,44,0.00,,,0.00,VWS V14.00,2013-01-21 10:20:00,
2013-01-21 05:25:00,34.0,13.9,30.08,NE,46,0.0,0.0,43,0.00,,,0.00,VWS V14.00,2013-01-21 10:25:00,
2013-01-21 05:30:00,34.0,12.8,30.08,NE,46,0.0,0.0,41,0.00,,,0.00,VWS V14.00,2013-01-21 10:30:00,
2013-01-21 05:35:00,33.8,12.6,30.08,NE,46,0.0,0.0,41,0.00,,,0.00,VWS V14.00,2013-01-21 10:35:00,
2013-01-21 05:40:00,33.6,13.0,30.08,NE,46,0.0,0.0,42,0.00,,,0.00,VWS V14.00,2013-01-21 10:40:00,
2013-01-21 05:45:00,33.8,12.6,30.08,NE,46,0.0,0.0,41,0.00,,,0.00,VWS V14.00,2013-01-21 10:45:00,
2013-01-21 05:50:00,34.0,12.2,30.08,NE,46,0.0,0.0,40,0.00,,,0.00,VWS V14.00,2013-01-21 10:50:00,
2013-01-21 05:55:00,34.2,12.4,30.08,NE,46,0.0,0.0,40,0.00,,,0.00,VWS V14.00,2013-01-21 10:55:00,
2013-01-21 06:00:00,34.3,12.5,30.08,NE,46,0.0,0.0,40,0.00,,,0.00,VWS V14.00,2013-01-21 11:00:00,
2013-01-21 06:05:00,34.3,12.5,30.08,NE,46,0.0,0.0,40,0.00,,,0.00,VWS V14.00,2013-01-21 11:05:00,
2013-01-21 06:10:00,34.2,12.4,30.08,NE,46,0.0,0.0,40,0.00,,,0.00,VWS V14.00,2013-01-21 11:10:00,
2013-01-21 06:15:00,33.6,12.4,30.08,NE,46,0.0,0.0,41,0.00,,,0.00,VWS V14.00,2013-01-21 11:15:00,
2013-01-21 06:20:00,33.3,12.1,30.08,NE,46,0.0,0.0,41,0.00,,,0.00,VWS V14.00,2013-01-21 11:20:00,
2013-01-21 06:25:00,33.3,12.1,30.08,NE,46,0.0,0.0,41,0.00,,,0.00,VWS V14.00,2013-01-21 11:25:00,
2013-01-21 06:30:00,33.3,12.1,30.08,NE,46,0.0,0.0,41,0.00,,,0.00,VWS V14.00,2013-01-21 11:30:00,
2013-01-21 06:35:00,33.3,12.7,30.08,NE,46,0.0,0.0,42,0.00,,,0.00,VWS V14.00,2013-01-21 11:35:00,
2013-01-21 06:40:00,33.4,12.3,30.08,NE,46,0.0,0.0,41,0.00,,,0.00,VWS V14.00,2013-01-21 11:40:00,
2013-01-21 06:45:00,33.4,12.3,30.08,NE,46,0.0,0.0,41,0.00,,,0.00,VWS V14.00,2013-01-21 11:45:00,
2013-01-21 06:50:00,33.3,12.1,30.05,NE,46,0.0,0.0,41,0.00,,,0.00,VWS V14.00,2013-01-21 11:50:00,
2013-01-21 06:55:00,33.1,12.0,30.05,NE,46,0.0,0.0,41,0.00,,,0.00,VWS V14.00,2013-01-21 11:55:00,
2013-01-21 07:00:00,32.9,12.3,30.05,NE,46,0.0,0.0,42,0.00,,,0.00,VWS V14.00,2013-01-21 12:00:00,
2013-01-21 07:05:00,32.2,12.2,30.08,NE,46,0.0,0.0,43,0.00,,,0.00,VWS V14.00,2013-01-21 12:05:00,
2013-01-21 07:10:00,31.5,12.1,30.08,NE,46,0.0,0.0,44,0.00,,,0.00,VWS V14.00,2013-01-21 12:10:00,
2013-01-21 07:15:00,31.3,11.9,30.08,NE,46,0.0,0.0,44,0.00,,,0.00,VWS V14.00,2013-01-21 12:15:00,
2013-01-21 07:20:00,31.5,12.1,30.08,NE,46,0.0,0.0,44,0.00,,,0.00,VWS V14.00,2013-01-21 12:20:00,
2013-01-21 07:25:00,31.8,12.4,30.08,NE,46,0.0,0.0,44,0.00,,,0.00,VWS V14.00,2013-01-21 12:25:00,
2013-01-21 07:30:00,32.0,12.1,30.08,NE,46,0.0,0.0,43,0.00,,,0.00,VWS V14.00,2013-01-21 12:30:00,
2013-01-21 07:35:00,32.2,11.7,30.05,NE,46,0.0,0.0,42,0.00,,,0.00,VWS V14.00,2013-01-21 12:35:00,
2013-01-21 07:40:00,32.5,12.0,30.05,NE,46,0.0,0.0,42,0.00,,,0.00,VWS V14.00,2013-01-21 12:40:00,
2013-01-21 07:45:00,32.5,11.5,30.05,NE,46,0.0,0.0,41,0.00,,,0.00,VWS V14.00,2013-01-21 12:45:00,
2013-01-21 07:50:00,32.2,11.7,30.08,NE,46,0.0,0.0,42,0.00,,,0.00,VWS V14.00,2013-01-21 12:50:00,
2013-01-21 07:55:00,31.8,12.4,30.08,NE,46,0.0,0.0,44,0.00,,,0.00,VWS V14.00,2013-01-21 12:55:00,
2013-01-21 08:00:00,31.6,12.2,30.08,NE,46,0.0,0.0,44,0.00,,,0.00,VWS V14.00,2013-01-21 13:00:00,
2013-01-21 08:05:00,31.8,12.4,30.05,NE,46,0.0,0.0,44,0.00,,,0.00,VWS V14.00,2013-01-21 13:05:00,
2013-01-21 08:10:00,31.6,12.8,30.05,NE,46,0.0,0.0,45,0.00,,,0.00,VWS V14.00,2013-01-21 13:10:00,
2013-01-21 08:16:00,31.5,13.6,30.05,NE,46,0.0,0.0,47,0.00,,,0.00,VWS V14.00,2013-01-21 13:16:00,
2013-01-21 08:21:00,31.3,13.4,30.05,NE,46,0.0,0.0,47,0.00,,,0.00,VWS V14.00,2013-01-21 13:21:00,
2013-01-21 08:26:00,31.3,13.4,30.05,NE,46,0.0,0.0,47,0.00,,,0.00,VWS V14.00,2013-01-21 13:26:00,
2013-01-21 08:31:00,31.8,12.9,30.05,NE,46,0.0,0.0,45,0.00,,,0.00,VWS V14.00,2013-01-21 13:31:00,
2013-01-21 08:36:00,32.0,12.6,30.08,NE,46,0.0,0.0,44,0.00,,,0.00,VWS V14.00,2013-01-21 13:36:00,
2013-01-21 08:41:00,32.4,12.9,30.08,NE,46,0.0,0.0,44,0.00,,,0.00,VWS V14.00,2013-01-21 13:41:00,
2013-01-21 08:46:00,32.9,13.4,30.08,NE,46,0.0,0.0,44,0.00,,,0.00,VWS V14.00,2013-01-21 13:46:00,
2013-01-21 08:51:00,33.4,13.9,30.05,NE,46,0.0,0.0,44,0.00,,,0.00,VWS V14.00,2013-01-21 13:51:00,
2013-01-21 08:56:00,34.0,13.9,30.05,NE,46,0.0,0.0,43,0.00,,,0.00,VWS V14.00,2013-01-21 13:56:00,
2013-01-21 09:01:00,34.3,13.6,30.08,NE,46,0.0,0.0,42,0.00,,,0.00,VWS V14.00,2013-01-21 14:01:00,
2013-01-21 09:06:00,34.9,13.6,30.08,NE,46,0.0,0.0,41,0.00,,,0.00,VWS V14.00,2013-01-21 14:06:00,
2013-01-21 09:11:00,35.2,13.9,30.08,NE,46,0.0,0.0,41,0.00,,,0.00,VWS V14.00,2013-01-21 14:11:00,
2013-01-21 09:16:00,35.6,13.7,30.08,NE,46,0.0,0.0,40,0.00,,,0.00,VWS V14.00,2013-01-21 14:16:00,
2013-01-21 09:21:00,35.8,13.8,30.08,NE,46,0.0,0.0,40,0.00,,,0.00,VWS V14.00,2013-01-21 14:21:00,
2013-01-21 09:26:00,36.0,14.0,30.08,NE,46,0.0,0.0,40,0.00,,,0.00,VWS V14.00,2013-01-21 14:26:00,
2013-01-21 09:31:00,36.7,14.1,30.08,NE,46,0.0,0.0,39,0.00,,,0.00,VWS V14.00,2013-01-21 14:31:00,
2013-01-21 09:36:00,37.0,14.4,30.05,NE,46,0.0,0.0,39,0.00,,,0.00,VWS V14.00,2013-01-21 14:36:00,
2013-01-21 09:41:00,37.4,14.7,30.05,NE,46,0.0,0.0,39,0.00,,,0.00,VWS V14.00,2013-01-21 14:41:00,
2013-01-21 09:46:00,37.8,14.4,30.05,NE,46,0.0,0.0,38,0.00,,,0.00,VWS V14.00,2013-01-21 14:46:00,
2013-01-21 09:51:00,38.1,14.8,30.05,NE,46,0.0,0.0,38,0.00,,,0.00,VWS V14.00,2013-01-21 14:51:00,
2013-01-21 09:56:00,38.5,14.5,30.05,NE,46,0.0,0.0,37,0.00,,,0.00,VWS V14.00,2013-01-21 14:56:00,
2013-01-21 10:01:00,38.7,14.6,30.08,NE,46,0.0,0.0,37,0.00,,,0.00,VWS V14.00,2013-01-21 15:01:00,
2013-01-21 10:06:00,39.2,14.5,30.08,NE,46,0.0,0.0,36,0.00,,,0.00,VWS V14.00,2013-01-21 15:06:00,
2013-01-21 10:11:00,39.6,14.8,30.08,NE,46,0.0,0.0,36,0.00,,,0.00,VWS V14.00,2013-01-21 15:11:00,
2013-01-21 10:16:00,39.9,15.1,30.08,NE,46,0.0,0.0,36,0.00,,,0.00,VWS V14.00,2013-01-21 15:16:00,
2013-01-21 10:21:00,40.5,14.3,30.08,NNE,29,0.0,0.0,34,0.00,,,0.00,VWS V14.00,2013-01-21 15:21:00,
2013-01-21 10:26:00,40.8,14.0,30.08,NNE,19,0.0,0.0,33,0.00,,,0.00,VWS V14.00,2013-01-21 15:26:00,
2013-01-21 10:32:00,41.0,14.1,30.08,NNW,340,2.2,2.2,33,0.00,,,0.00,VWS V14.00,2013-01-21 15:32:00,
2013-01-21 10:37:00,41.4,13.7,30.08,North,357,0.0,0.0,32,0.00,,,0.00,VWS V14.00,2013-01-21 15:37:00,
2013-01-21 10:42:00,41.9,14.2,30.08,North,357,0.0,0.0,32,0.00,,,0.00,VWS V14.00,2013-01-21 15:42:00,
2013-01-21 10:47:00,42.3,13.8,30.05,North,357,0.0,0.0,31,0.00,,,0.00,VWS V14.00,2013-01-21 15:47:00,
2013-01-21 10:52:00,42.4,14.0,30.05,North,0,3.1,3.6,31,0.00,,,0.00,VWS V14.00,2013-01-21 15:52:00,
2013-01-21 10:57:00,42.8,13.5,30.05,NNE,12,0.0,0.0,30,0.00,,,0.00,VWS V14.00,2013-01-21 15:57:00,
2013-01-21 11:02:00,43.2,13.8,30.05,SE,138,0.0,0.0,30,0.00,,,0.00,VWS V14.00,2013-01-21 16:02:00,
2013-01-21 11:07:00,43.3,14.0,30.05,NNE,25,0.0,0.0,30,0.00,,,0.00,VWS V14.00,2013-01-21 16:07:00,
2013-01-21 11:12:00,43.5,14.2,30.05,ESE,108,2.7,2.7,30,0.00,,,0.00,VWS V14.00,2013-01-21 16:12:00,
2013-01-21 11:17:00,44.1,13.9,30.05,East,99,0.0,0.0,29,0.00,,,0.00,VWS V14.00,2013-01-21 16:17:00,
2013-01-21 11:22:00,44.6,13.5,30.05,NNE,20,0.0,0.0,28,0.00,,,0.00,VWS V14.00,2013-01-21 16:22:00,
2013-01-21 11:27:00,45.0,13.8,30.05,North,353,4.9,4.9,28,0.00,,,0.00,VWS V14.00,2013-01-21 16:27:00,
2013-01-21 11:32:00,45.1,14.0,30.02,North,357,4.0,4.0,28,0.00,,,0.00,VWS V14.00,2013-01-21 16:32:00,
2013-01-21 11:37:00,45.5,14.3,30.02,NNE,21,2.7,3.6,28,0.00,,,0.00,VWS V14.00,2013-01-21 16:37:00,
2013-01-21 11:42:00,45.7,14.5,30.02,ENE,65,0.0,2.2,28,0.00,,,0.00,VWS V14.00,2013-01-21 16:42:00,
2013-01-21 11:47:00,45.9,14.6,30.02,NNE,14,0.0,2.2,28,0.00,,,0.00,VWS V14.00,2013-01-21 16:47:00,
2013-01-21 11:52:00,46.4,14.2,30.02,NE,45,2.7,3.1,27,0.00,,,0.00,VWS V14.00,2013-01-21 16:52:00,
2013-01-21 11:57:00,46.6,14.4,30.02,NNW,348,3.1,3.1,27,0.00,,,0.00,VWS V14.00,2013-01-21 16:57:00,
2013-01-21 12:02:00,46.9,14.7,29.99,SE,125,0.0,0.0,27,0.00,,,0.00,VWS V14.00,2013-01-21 17:02:00,
2013-01-21 12:07:00,47.1,15.7,29.99,ENE,65,2.2,5.4,28,0.00,,,0.00,VWS V14.00,2013-01-21 17:07:00,
2013-01-21 12:12:00,47.5,16.0,29.99,NW,314,4.9,4.9,28,0.00,,,0.00,VWS V14.00,2013-01-21 17:12:00,
2013-01-21 12:17:00,47.8,15.5,29.96,NNE,32,0.0,2.2,27,0.00,,,0.00,VWS V14.00,2013-01-21 17:17:00,
2013-01-21 12:22:00,48.2,15.8,29.96,North,357,4.0,4.0,27,0.00,,,0.00,VWS V14.00,2013-01-21 17:22:00,
2013-01-21 12:27:00,48.4,16.0,29.96,North,8,3.1,4.9,27,0.00,,,0.00,VWS V14.00,2013-01-21 17:27:00,
2013-01-21 12:32:00,48.7,16.3,29.96,SE,132,4.0,5.8,27,0.00,,,0.00,VWS V14.00,2013-01-21 17:32:00,
2013-01-21 12:37:00,48.9,16.4,29.96,NNE,27,4.9,5.4,27,0.00,,,0.00,VWS V14.00,2013-01-21 17:37:00,
2013-01-21 12:42:00,49.3,16.7,29.96,ENE,58,0.0,2.2,27,0.00,,,0.00,VWS V14.00,2013-01-21 17:42:00,
2013-01-21 12:47:00,49.5,16.9,29.93,NNE,29,4.0,6.3,27,0.00,,,0.00,VWS V14.00,2013-01-21 17:47:00,
2013-01-21 12:52:00,49.6,17.0,29.93,North,6,3.6,4.5,27,0.00,,,0.00,VWS V14.00,2013-01-21 17:52:00,
2013-01-21 12:57:00,49.8,17.2,29.93,NNE,30,3.1,5.8,27,0.00,,,0.00,VWS V14.00,2013-01-21 17:57:00,
2013-01-21 13:02:00,50.2,17.5,29.93,NNE,18,3.6,5.8,27,0.00,,,0.00,VWS V14.00,2013-01-21 18:02:00,
2013-01-21 13:07:00,50.2,17.5,29.93,North,10,4.9,5.4,27,0.00,,,0.00,VWS V14.00,2013-01-21 18:07:00,
2013-01-21 13:12:00,50.2,17.5,29.93,NE,47,4.0,5.8,27,0.00,,,0.00,VWS V14.00,2013-01-21 18:12:00,
2013-01-21 13:18:00,50.4,17.7,29.90,NNE,21,4.0,4.0,27,0.00,,,0.00,VWS V14.00,2013-01-21 18:18:00,
2013-01-21 13:23:00,50.5,17.8,29.90,North,0,4.5,4.5,27,0.00,,,0.00,VWS V14.00,2013-01-21 18:23:00,
2013-01-21 13:28:00,50.7,18.0,29.90,East,94,3.1,3.1,27,0.00,,,0.00,VWS V14.00,2013-01-21 18:28:00,
2013-01-21 13:33:00,50.9,18.1,29.90,NE,34,4.0,4.0,27,0.00,,,0.00,VWS V14.00,2013-01-21 18:33:00,
2013-01-21 13:38:00,51.1,18.3,29.90,NE,44,0.0,0.0,27,0.00,,,0.00,VWS V14.00,2013-01-21 18:38:00,
2013-01-21 13:43:00,51.1,18.3,29.90,NE,49,4.0,4.0,27,0.00,,,0.00,VWS V14.00,2013-01-21 18:43:00,
2013-01-21 13:48:00,51.1,17.4,29.87,North,1,4.0,4.0,26,0.00,,,0.00,VWS V14.00,2013-01-21 18:48:00,
2013-01-21 13:53:00,51.3,17.6,29.87,NNE,25,4.0,4.0,26,0.00,,,0.00,VWS V14.00,2013-01-21 18:53:00,
2013-01-21 13:58:00,51.4,17.7,29.87,North,4,2.2,3.1,26,0.00,,,0.00,VWS V14.00,2013-01-21 18:58:00,
2013-01-21 14:03:00,51.4,17.7,29.87,ENE,77,3.1,4.0,26,0.00,,,0.00,VWS V14.00,2013-01-21 19:03:00,
2013-01-21 14:08:00,51.4,17.7,29.87,NNE,17,3.6,5.8,26,0.00,,,0.00,VWS V14.00,2013-01-21 19:08:00,
2013-01-21 14:13:00,51.6,17.9,29.87,SSE,163,3.1,3.1,26,0.00,,,0.00,VWS V14.00,2013-01-21 19:13:00,
2013-01-21 14:18:00,51.6,17.9,29.87,North,10,3.6,4.0,26,0.00,,,0.00,VWS V14.00,2013-01-21 19:18:00,
2013-01-21 14:23:00,51.6,17.9,29.87,South,172,2.7,3.6,26,0.00,,,0.00,VWS V14.00,2013-01-21 19:23:00,
2013-01-21 14:28:00,52.0,18.2,29.87,NNE,32,4.9,4.9,26,0.00,,,0.00,VWS V14.00,2013-01-21 19:28:00,
2013-01-21 14:33:00,52.0,18.2,29.87,ENE,77,0.0,2.2,26,0.00,,,0.00,VWS V14.00,2013-01-21 19:33:00,
2013-01-21 14:38:00,52.0,15.4,29.87,NE,34,3.6,4.0,23,0.00,,,0.00,VWS V14.00,2013-01-21 19:38:00,
2013-01-21 14:43:00,52.0,13.3,29.87,NE,48,3.6,3.6,21,0.00,,,0.00,VWS V14.00,2013-01-21 19:43:00,
2013-01-21 14:48:00,52.0,15.4,29.87,SE,133,2.7,2.7,23,0.00,,,0.00,VWS V14.00,2013-01-21 19:48:00,
2013-01-21 14:53:00,52.0,15.4,29.87,East,85,3.6,3.6,23,0.00,,,0.00,VWS V14.00,2013-01-21 19:53:00,
2013-01-21 14:58:00,52.0,15.4,29.87,North,8,4.9,4.9,23,0.00,,,0.00,VWS V14.00,2013-01-21 19:58:00,
2013-01-21 15:03:00,52.0,15.4,29.84,SE,124,2.7,4.0,23,0.00,,,0.00,VWS V14.00,2013-01-21 20:03:00,
2013-01-21 15:08:00,52.0,13.3,29.84,NNW,335,6.3,6.3,21,0.00,,,0.00,VWS V14.00,2013-01-21 20:08:00,
2013-01-21 15:13:00,52.0,15.4,29.84,NNE,22,0.0,4.0,23,0.00,,,0.00,VWS V14.00,2013-01-21 20:13:00,
2013-01-21 15:18:00,51.6,16.0,29.84,East,83,3.1,3.1,24,0.00,,,0.00,VWS V14.00,2013-01-21 20:18:00,
2013-01-21 15:23:00,51.8,18.0,29.84,East,100,2.7,5.4,26,0.00,,,0.00,VWS V14.00,2013-01-21 20:23:00,
2013-01-21 15:28:00,51.8,15.2,29.84,NNE,33,3.1,4.0,23,0.00,,,0.00,VWS V14.00,2013-01-21 20:28:00,
2013-01-21 15:33:00,51.6,16.0,29.84,ENE,73,4.0,5.8,24,0.00,,,0.00,VWS V14.00,2013-01-21 20:33:00,
2013-01-21 15:38:00,51.4,15.9,29.84,ESE,110,4.9,5.8,24,0.00,,,0.00,VWS V14.00,2013-01-21 20:38:00,
2013-01-21 15:43:00,51.6,10.7,29.84,ENE,65,4.0,5.8,19,0.00,,,0.00,VWS V14.00,2013-01-21 20:43:00,
2013-01-21 15:48:00,51.6,13.0,29.84,NE,36,3.6,3.6,21,0.00,,,0.00,VWS V14.00,2013-01-21 20:48:00,
2013-01-21 15:53:00,51.3,12.7,29.84,East,100,2.7,8.7,21,0.00,,,0.00,VWS V14.00,2013-01-21 20:53:00,
2013-01-21 15:58:00,50.9,12.4,29.84,East,88,4.0,5.4,21,0.00,,,0.00,VWS V14.00,2013-01-21 20:58:00,
2013-01-21 16:03:00,50.7,12.2,29.84,SE,142,3.1,3.6,21,0.00,,,0.00,VWS V14.00,2013-01-21 21:03:00,
2013-01-21 16:08:00,50.5,12.1,29.84,NE,52,6.3,6.7,21,0.00,,,0.00,VWS V14.00,2013-01-21 21:08:00,
2013-01-21 16:13:00,50.4,11.9,29.84,NNE,25,4.0,4.0,21,0.00,,,0.00,VWS V14.00,2013-01-21 21:13:00,
2013-01-21 16:18:00,50.4,9.7,29.84,East,94,0.0,6.3,19,0.00,,,0.00,VWS V14.00,2013-01-21 21:18:00,
2013-01-21 16:24:00,50.4,11.9,29.84,SE,128,2.2,3.1,21,0.00,,,0.00,VWS V14.00,2013-01-21 21:24:00,
2013-01-21 16:29:00,50.0,11.6,29.84,East,84,0.0,0.0,21,0.00,,,0.00,VWS V14.00,2013-01-21 21:29:00,
2013-01-21 16:34:00,50.0,11.6,29.84,ENE,63,2.7,3.6,21,0.00,,,0.00,VWS V14.00,2013-01-21 21:34:00,
2013-01-21 16:39:00,50.0,11.6,29.84,NW,317,3.6,3.6,21,0.00,,,0.00,VWS V14.00,2013-01-21 21:39:00,
2013-01-21 16:44:00,49.8,9.2,29.84,ESE,116,3.6,3.6,19,0.00,,,0.00,VWS V14.00,2013-01-21 21:44:00,
2013-01-21 16:49:00,49.5,11.2,29.84,ESE,105,6.3,6.3,21,0.00,,,0.00,VWS V14.00,2013-01-21 21:49:00,
2013-01-21 16:54:00,49.3,8.8,29.84,East,99,2.7,3.1,19,0.00,,,0.00,VWS V14.00,2013-01-21 21:54:00,
2013-01-21 16:59:00,49.1,8.6,29.84,ENE,65,3.1,3.6,19,0.00,,,0.00,VWS V14.00,2013-01-21 21:59:00,
2013-01-21 17:04:00,48.9,8.5,29.84,NNW,338,5.4,5.4,19,0.00,,,0.00,VWS V14.00,2013-01-21 22:04:00,
2013-01-21 17:09:00,48.9,8.5,29.84,NNW,328,5.4,5.4,19,0.00,,,0.00,VWS V14.00,2013-01-21 22:09:00,
2013-01-21 17:14:00,48.7,8.3,29.84,ESE,102,4.9,4.9,19,0.00,,,0.00,VWS V14.00,2013-01-21 22:14:00,
2013-01-21 17:19:00,48.7,8.3,29.87,ESE,104,2.7,4.0,19,0.00,,,0.00,VWS V14.00,2013-01-21 22:19:00,
2013-01-21 17:24:00,48.2,7.9,29.87,ESE,104,5.4,5.4,19,0.00,,,0.00,VWS V14.00,2013-01-21 22:24:00,
2013-01-21 17:29:00,47.8,7.6,29.87,ENE,78,3.1,3.1,19,0.00,,,0.00,VWS V14.00,2013-01-21 22:29:00,
2013-01-21 17:34:00,47.5,7.3,29.87,ESE,116,6.3,6.3,19,0.00,,,0.00,VWS V14.00,2013-01-21 22:34:00,
2013-01-21 17:39:00,47.3,7.1,29.87,East,96,5.8,5.8,19,0.00,,,0.00,VWS V14.00,2013-01-21 22:39:00,
2013-01-21 17:44:00,47.1,7.0,29.87,ESE,120,4.9,8.1,19,0.00,,,0.00,VWS V14.00,2013-01-21 22:44:00,
2013-01-21 17:49:00,46.8,6.7,29.87,NE,46,4.0,5.8,19,0.00,,,0.00,VWS V14.00,2013-01-21 22:49:00,
2013-01-21 17:54:00,46.6,6.5,29.87,NE,44,3.6,4.0,19,0.00,,,0.00,VWS V14.00,2013-01-21 22:54:00,
2013-01-21 17:59:00,46.4,6.4,29.87,SE,137,3.6,3.6,19,0.00,,,0.00,VWS V14.00,2013-01-21 22:59:00,
2013-01-21 18:04:00,46.0,7.2,29.87,SSE,150,2.7,3.6,20,0.00,,,0.00,VWS V14.00,2013-01-21 23:04:00,
2013-01-21 18:09:00,45.5,6.8,29.87,SE,124,2.7,2.7,20,0.00,,,0.00,VWS V14.00,2013-01-21 23:09:00,
2013-01-21 18:14:00,45.1,6.5,29.87,ESE,122,2.7,5.4,20,0.00,,,0.00,VWS V14.00,2013-01-21 23:14:00,
2013-01-21 18:19:00,45.1,6.5,29.90,ENE,60,4.0,4.0,20,0.00,,,0.00,VWS V14.00,2013-01-21 23:19:00,
2013-01-21 18:24:00,45.0,6.3,29.90,ESE,119,5.8,9.6,20,0.00,,,0.00,VWS V14.00,2013-01-21 23:24:00,
2013-01-21 18:29:00,44.6,6.0,29.90,SE,135,5.8,5.8,20,0.00,,,0.00,VWS V14.00,2013-01-21 23:29:00,
2013-01-21 18:34:00,44.4,3.6,29.90,East,83,2.7,4.0,18,0.00,,,0.00,VWS V14.00,2013-01-21 23:34:00,
2013-01-21 18:39:00,44.1,5.6,29.90,ESE,122,2.7,3.1,20,0.00,,,0.00,VWS V14.00,2013-01-21 23:39:00,
2013-01-21 18:44:00,43.7,3.0,29.90,ESE,122,3.1,8.7,18,0.00,,,0.00,VWS V14.00,2013-01-21 23:44:00,
2013-01-21 18:49:00,43.7,5.3,29.90,SE,129,2.7,3.6,20,0.00,,,0.00,VWS V14.00,2013-01-21 23:49:00,
2013-01-21 18:54:00,43.0,4.7,29.90,SE,142,3.6,4.9,20,0.00,,,0.00,VWS V14.00,2013-01-21 23:54:00,
2013-01-21 18:59:00,43.0,2.4,29.90,ESE,112,3.1,5.8,18,0.00,,,0.00,VWS V14.00,2013-01-21 23:59:00,
2013-01-21 19:04:00,43.0,2.4,29.90,ESE,112,2.7,5.4,18,0.00,,,0.00,VWS V14.00,2013-01-22 00:04:00,
2013-01-21 19:09:00,43.0,2.4,29.90,SE,136,8.3,9.6,18,0.00,,,0.00,VWS V14.00,2013-01-22 00:09:00,
2013-01-21 19:14:00,42.8,2.2,29.90,NE,38,5.8,8.3,18,0.00,,,0.00,VWS V14.00,2013-01-22 00:14:00,
2013-01-21 19:19:00,42.8,2.2,29.90,SSE,165,4.0,4.0,18,0.00,,,0.00,VWS V14.00,2013-01-22 00:19:00,
2013-01-21 19:24:00,42.4,1.9,29.90,SE,133,4.9,4.9,18,0.00,,,0.00,VWS V14.00,2013-01-22 00:24:00,
2013-01-21 19:29:00,42.1,1.6,29.90,East,80,4.0,5.4,18,0.00,,,0.00,VWS V14.00,2013-01-22 00:29:00,
2013-01-21 19:34:00,42.1,1.6,29.93,SE,137,3.6,3.6,18,0.00,,,0.00,VWS V14.00,2013-01-22 00:34:00,
2013-01-21 19:39:00,41.9,1.5,29.93,ESE,103,2.2,5.4,18,0.00,,,0.00,VWS V14.00,2013-01-22 00:39:00,
2013-01-21 19:44:00,41.5,1.2,29.93,East,82,0.0,2.2,18,0.00,,,0.00,VWS V14.00,2013-01-22 00:44:00,
2013-01-21 19:49:00,41.2,0.9,29.93,NNE,31,0.0,3.1,18,0.00,,,0.00,VWS V14.00,2013-01-22 00:49:00,
2013-01-21 19:54:00,41.0,0.8,29.93,ESE,122,2.2,6.3,18,0.00,,,0.00,VWS V14.00,2013-01-22 00:54:00,
2013-01-21 20:00:00,40.6,0.5,29.93,NE,35,0.0,0.0,18,0.00,,,0.00,VWS V14.00,2013-01-22 01:00:00,
2013-01-21 20:05:00,40.5,0.3,29.93,SW,231,0.0,0.0,18,0.00,,,0.00,VWS V14.00,2013-01-22 01:05:00,
2013-01-21 20:10:00,40.3,0.2,29.93,North,0,0.0,0.0,18,0.00,,,0.00,VWS V14.00,2013-01-22 01:10:00,
2013-01-21 20:15:00,40.3,0.2,29.93,SE,125,0.0,0.0,18,0.00,,,0.00,VWS V14.00,2013-01-22 01:15:00,
2013-01-21 20:20:00,40.1,3.3,29.93,ESE,110,2.7,2.7,21,0.00,,,0.00,VWS V14.00,2013-01-22 01:20:00,
2013-01-21 20:25:00,39.9,3.2,29.93,ENE,76,2.2,4.9,21,0.00,,,0.00,VWS V14.00,2013-01-22 01:25:00,
2013-01-21 20:30:00,39.9,3.2,29.93,East,96,4.0,4.0,21,0.00,,,0.00,VWS V14.00,2013-01-22 01:30:00,
2013-01-21 20:35:00,39.9,3.2,29.93,South,174,3.6,3.6,21,0.00,,,0.00,VWS V14.00,2013-01-22 01:35:00,
2013-01-21 20:40:00,39.7,3.0,29.93,NE,52,2.7,3.1,21,0.00,,,0.00,VWS V14.00,2013-01-22 01:40:00,
2013-01-21 20:45:00,39.6,2.9,29.93,NNE,19,2.7,3.1,21,0.00,,,0.00,VWS V14.00,2013-01-22 01:45:00,
2013-01-21 20:50:00,39.6,2.9,29.93,South,176,3.1,3.1,21,0.00,,,0.00,VWS V14.00,2013-01-22 01:50:00,
2013-01-21 20:55:00,39.7,-0.3,29.93,East,92,2.7,3.6,18,0.00,,,0.00,VWS V14.00,2013-01-22 01:55:00,
2013-01-21 21:00:00,39.6,-0.4,29.93,ESE,113,2.7,3.1,18,0.00,,,0.00,VWS V14.00,2013-01-22 02:00:00,
2013-01-21 21:05:00,39.4,-0.6,29.93,NE,35,4.0,4.0,18,0.00,,,0.00,VWS V14.00,2013-01-22 02:05:00,
2013-01-21 21:10:00,39.4,-0.6,29.93,SSE,152,7.6,7.6,18,0.00,,,0.00,VWS V14.00,2013-01-22 02:10:00,
2013-01-21 21:15:00,39.4,-0.6,29.93,South,184,3.6,3.6,18,0.00,,,0.00,VWS V14.00,2013-01-22 02:15:00,
2013-01-21 21:20:00,39.4,-0.6,29.93,NE,47,2.7,3.6,18,0.00,,,0.00,VWS V14.00,2013-01-22 02:20:00,
2013-01-21 21:25:00,39.2,-0.7,29.93,SE,137,2.7,4.9,18,0.00,,,0.00,VWS V14.00,2013-01-22 02:25:00,
2013-01-21 21:30:00,39.2,-0.7,29.93,SSE,147,3.6,6.3,18,0.00,,,0.00,VWS V14.00,2013-01-22 02:30:00,
2013-01-21 21:35:00,39.2,-0.7,29.93,ESE,107,5.4,5.4,18,0.00,,,0.00,VWS V14.00,2013-01-22 02:35:00,
2013-01-21 21:40:00,39.2,-0.7,29.93,ENE,73,4.0,6.3,18,0.00,,,0.00,VWS V14.00,2013-01-22 02:40:00,
2013-01-21 21:45:00,38.8,0.1,29.93,ESE,113,2.2,4.9,19,0.00,,,0.00,VWS V14.00,2013-01-22 02:45:00,
2013-01-21 21:50:00,38.8,0.1,29.93,East,84,2.7,3.1,19,0.00,,,0.00,VWS V14.00,2013-01-22 02:50:00,
2013-01-21 21:55:00,38.8,0.1,29.93,SE,126,2.7,4.0,19,0.00,,,0.00,VWS V14.00,2013-01-22 02:55:00,
2013-01-21 22:00:00,38.7,0.0,29.93,ESE,118,0.0,0.0,19,0.00,,,0.00,VWS V14.00,2013-01-22 03:00:00,
2013-01-21 22:05:00,38.3,-0.3,29.93,SE,132,0.0,3.6,19,0.00,,,0.00,VWS V14.00,2013-01-22 03:05:00,
2013-01-21 22:10:00,38.3,-0.3,29.93,SE,125,2.7,3.1,19,0.00,,,0.00,VWS V14.00,2013-01-22 03:10:00,
2013-01-21 22:15:00,38.3,-0.3,29.93,SSE,163,0.0,4.9,19,0.00,,,0.00,VWS V14.00,2013-01-22 03:15:00,
2013-01-21 22:20:00,37.8,1.4,29.96,NE,49,4.9,4.9,21,0.00,,,0.00,VWS V14.00,2013-01-22 03:20:00,
2013-01-21 22:25:00,37.8,-0.8,29.96,SE,134,3.1,3.6,19,0.00,,,0.00,VWS V14.00,2013-01-22 03:25:00,
2013-01-21 22:30:00,37.8,-0.8,29.96,SSW,196,3.1,4.0,19,0.00,,,0.00,VWS V14.00,2013-01-22 03:30:00,
2013-01-21 22:35:00,37.6,-0.9,29.96,SE,136,4.0,5.8,19,0.00,,,0.00,VWS V14.00,2013-01-22 03:35:00,
2013-01-21 22:40:00,37.6,-0.9,29.96,SE,128,0.0,2.7,19,0.00,,,0.00,VWS V14.00,2013-01-22 03:40:00,
2013-01-21 22:45:00,37.4,-1.1,29.96,SE,126,2.2,3.1,19,0.00,,,0.00,VWS V14.00,2013-01-22 03:45:00,
2013-01-21 22:50:00,37.2,-1.2,29.96,East,89,0.0,2.7,19,0.00,,,0.00,VWS V14.00,2013-01-22 03:50:00,
2013-01-21 22:55:00,37.0,-1.4,29.96,North,357,0.0,0.0,19,0.00,,,0.00,VWS V14.00,2013-01-22 03:55:00,
2013-01-21 23:00:00,36.9,-1.5,29.96,ESE,118,0.0,5.4,19,0.00,,,0.00,VWS V14.00,2013-01-22 04:00:00,
2013-01-21 23:05:00,36.7,-1.7,29.96,SSE,154,2.2,3.6,19,0.00,,,0.00,VWS V14.00,2013-01-22 04:05:00,
2013-01-21 23:11:00,36.7,-1.7,29.96,SSE,150,0.0,2.2,19,0.00,,,0.00,VWS V14.00,2013-01-22 04:11:00,
2013-01-21 23:16:00,36.5,-1.8,29.96,SSE,156,3.6,3.6,19,0.00,,,0.00,VWS V14.00,2013-01-22 04:16:00,
2013-01-21 23:21:00,36.3,-2.0,29.96,SE,142,2.7,2.7,19,0.00,,,0.00,VWS V14.00,2013-01-22 04:21:00,
2013-01-21 23:26:00,36.3,-2.0,29.96,ESE,106,3.6,3.6,19,0.00,,,0.00,VWS V14.00,2013-01-22 04:26:00,
2013-01-21 23:31:00,36.0,-2.3,29.96,SE,125,3.1,3.1,19,0.00,,,0.00,VWS V14.00,2013-01-22 04:31:00,
2013-01-21 23:36:00,36.0,-2.3,29.96,ENE,73,0.0,0.0,19,0.00,,,0.00,VWS V14.00,2013-01-22 04:36:00,
2013-01-21 23:41:00,35.8,-2.4,29.96,ENE,70,3.1,3.1,19,0.00,,,0.00,VWS V14.00,2013-01-22 04:41:00,
2013-01-21 23:46:00,35.6,-2.6,29.96,ESE,118,3.6,5.8,19,0.00,,,0.00,VWS V14.00,2013-01-22 04:46:00,
2013-01-21 23:51:00,35.6,-2.6,29.96,SSE,163,3.1,3.1,19,0.00,,,0.00,VWS V14.00,2013-01-22 04:51:00,
2013-01-21 23:56:00,35.6,-2.6,29.96,ESE,115,2.7,3.1,19,0.00,,,0.00,VWS V14.00,2013-01-22 04:56:00,